Lapse_Rate
-4.2 -3.9 -4.0 -4.6 -4.6 -4.2 -4.3 -4.4 -4.5 -3.9 -3.9 -4.5 -4.3 -4.2 -4.1 -4.2 -3.9 -4.3 -4.2 -4.0 -3.7 -3.7 -3.7 -3.5 -3.1 -3.0 -3.5 -3.6 -3.5 -3.3 -3.1 -3.1 -2.0 -2.1 -2.4 -1.5 -1.6 -1.7 -0.7 -0.4 -0.4 -0.9 -2.4
-4.1 -4.0 -4.3 -4.0 -4.1 -4.2 -4.4 -4.5 -3.9 -4.4 -3.7 -3.8 -3.7 -4.0 -4.1 -4.0 -3.9 -4.2 -3.8 -3.5 -3.6 -3.5 -3.2 -3.0 -2.6 -1.9 -3.0 -3.1 -3.3 -2.7 -2.5 -2.6 -2.2 -1.5 -2.1 -1.8 -1.6 -1.4 -1.6 -1.6 -1.2 -1.3 -2.2
-5.7 -4.8 -4.6 -4.3 -3.8 -3.8 -4.0 -4.4 -4.3 -4.2 -4.3 -3.9 -4.0 -4.4 -4.2 -4.1 -4.1 -3.6 -3.5 -3.6 -3.4 -3.2 -3.1 -2.9 -2.5 -2.6 -2.5 -2.8 -2.5 -2.3 -2.3 -1.4 -2.6 -2.0 -1.9 -2.8 -2.6 -2.1 -2.7 -1.9 -1.5 -1.6 -1.9
-7.1 -5.9 -5.0 -4.6 -3.9 -3.6 -3.9 -4.5 -4.6 -3.9 -4.3 -4.6 -4.3 -4.1 -3.7 -3.5 -3.3 -3.4 -3.4 -3.5 -3.3 -3.1 -2.8 -2.8 -2.7 -2.4 -2.3 -2.4 -1.7 -1.8 -1.4 -1.6 -2.0 -2.0 -1.9 -2.1 -2.5 -2.1 -2.8 -3.2 -3.2 -3.1 -3.1
-6.5 -6.2 -5.5 -4.9 -4.5 -4.2 -4.0 -4.2 -4.4 -4.2 -3.6 -3.8 -4.5 -4.2 -3.6 -3.5 -3.0 -3.6 -3.1 -3.2 -3.1 -2.9 -2.9 -2.4 -1.9 -1.5 -0.7 -1.3 -1.2 -1.9 -1.7 -1.6 -1.4 -1.2 -0.9 -1.2 -1.1 -1.5 -1.7 -2.2 -2.3 -3.0 -3.0
-5.8 -5.8 -5.5 -6.0 -4.7 -3.7 -3.3 -3.6 -3.9 -3.4 -4.4 -4.2 -4.1 -3.7 -4.1 -2.7 -1.2 -0.3 -1.8 -2.7 -2.5 -2.3 -2.5 -2.6 -1.8 -0.3 0.0 0.8 1.0 0.4 -1.1 -1.4 -1.0 -1.2 -1.0 -0.5 -0.4 -0.7 -1.2 -1.0 -1.5 -2.3 -2.7
-5.1 -4.8 -5.3 -5.5 -4.6 -3.7 -3.0 -2.9 -2.6 -2.9 -3.9 -3.3 -3.9 -3.9 -3.8 -3.8 -0.1 1.0 1.0 -2.5 -2.1 -2.4 -1.9 -1.5 -1.5 -0.5 0.1 -0.8 0.9 1.4 1.3 1.6 1.3 -0.7 -0.3 -0.3 -0.3 0.0 -0.2 0.2 0.4 0.1 -0.0
-6.0 -5.8 -6.0 -5.8 -4.5 -4.8 -3.3 -2.3 -1.6 -2.1 -2.9 -2.8 -3.3 -3.4 -3.4 -3.3 0.2 1.5 1.8 -1.6 -2.2 -2.3 -1.8 -1.8 -1.4 -1.2 -0.4 -0.6 -0.6 -0.5 -0.5 -0.1 0.7 1.4 0.5 0.3 0.6 1.4 1.1 1.8 1.3 1.3 0.9
-6.0 -5.4 -5.5 -4.7 -3.7 -3.6 -2.9 -1.9 -0.7 -1.1 -1.6 -1.5 -1.3 -2.6 -2.5 -2.2 0.5 1.8 2.5 -0.4 -0.9 -1.3 -1.3 -1.0 -1.0 -0.9 0.6 2.8 0.5 0.6 0.4 0.4 1.8 2.9 3.3 3.6 3.9 4.1 4.6 2.8 2.7 2.5 1.7
-7.2 -6.4 -6.5 -5.4 -4.5 -3.7 -2.4 -2.3 -1.7 -0.9 0.4 0.2 0.1 -1.4 -0.5 -0.8 0.5 2.5 3.2 1.0 0.7 0.2 0.0 -0.2 2.0 0.2 2.0 3.7 2.3 1.2 1.4 1.2 1.1 1.9 2.5 3.4 4.1 3.8 4.6 4.3 4.0 3.2 2.8
-8.6 -8.4 -7.5 -6.5 -4.3 -3.3 -3.4 -3.2 -2.8 -1.0 1.0 -0.0 0.7 0.4 -0.4 1.0 -0.5 3.1 4.6 3.4 2.4 2.2 2.0 1.2 1.5 4.0 4.6 4.6 5.2 2.5 3.1 2.9 3.2 3.0 2.5 2.6 3.0 3.2 3.5 4.3 4.8 4.9 3.7
-8.6 -7.7 -7.9 -7.7 -6.6 -5.8 -5.1 -5.0 -2.9 -1.2 -0.3 -0.5 0.4 0.5 -0.3 -0.3 2.2 2.5 5.1 6.3 4.5 3.9 3.3 3.0 2.6 4.5 5.8 6.6 6.9 6.6 6.4 6.1 3.6 3.0 2.6 2.7 2.8 3.0 3.6 4.6 5.0 5.0 5.5
-7.8 -8.4 -8.6 -7.2 -6.2 -6.4 -5.3 -5.6 -4.4 -2.9 -1.2 -0.2 0.5 0.5 -0.5 -0.1 0.4 3.8 4.4 6.6 7.9 5.8 4.5 4.3 5.0 5.8 6.3 6.7 7.6 8.2 8.3 7.1 5.7 4.8 4.4 4.0 3.9 4.5 5.0 4.7 5.0 5.2 5.3
-7.7 -7.8 -8.0 -7.3 -6.6 -6.8 -4.7 -4.9 -4.5 -3.5 -2.3 -0.5 0.3 0.5 -0.5 0.4 0.8 1.7 4.0 4.7 7.3 7.8 7.0 6.6 6.9 7.0 7.4 6.6 7.5 7.5 6.9 6.4 6.1 5.8 5.8 5.2 5.7 4.7 5.5 5.7 5.6 5.6 5.1
-6.7 -7.2 -7.5 -6.7 -7.3 -4.7 -4.1 -3.3 -2.4 -3.5 -2.2 -2.4 -1.2 0.1 0.2 0.9 1.8 3.4 4.2 4.0 3.6 5.5 4.7 5.6 6.3 6.0 6.4 6.2 6.1 6.2 6.2 6.3 6.5 6.5 6.0 5.8 6.3 6.6 6.5 6.0 6.0 5.4 4.1
-6.2 -4.5 -5.6 -6.0 -6.4 -5.7 -6.4 -5.1 -0.0 0.8 1.5 1.7 2.2 0.6 1.5 3.5 5.0 6.2 7.3 7.5 7.4 7.8 6.0 5.0 5.1 5.3 5.3 5.4 5.4 5.5 6.1 6.6 6.8 6.2 5.8 5.8 6.0 6.1 5.8 5.7 6.8 6.2 5.9
-5.3 -5.5 -5.1 -3.0 -5.0 -5.2 -5.2 -4.8 -3.3 -1.1 2.1 2.4 3.0 3.4 3.3 4.4 5.8 6.3 7.0 7.3 7.3 7.2 5.3 4.7 4.8 5.0 5.1 5.3 5.8 6.2 6.1 6.1 6.4 6.1 6.0 5.9 6.4 6.4 7.6 7.0 7.5 7.6 7.3
-4.8 1.0 -3.8 -3.7 -4.2 -4.6 -4.2 -3.9 -4.2 -3.3 -2.6 -2.8 0.8 2.4 3.3 4.0 4.5 6.2 7.0 8.4 6.7 7.8 6.1 6.0 5.8 5.9 5.9 5.8 5.7 5.6 5.7 5.8 5.9 6.0 5.4 4.1 3.5 3.6 3.2 4.5 5.7 6.3 6.2
-1.4 -1.6 -3.5 -4.1 -3.5 -2.7 -3.3 -3.1 -3.0 -2.7 -3.0 -2.8 -2.6 0.8 1.8 3.7 4.6 6.2 7.1 5.9 5.3 4.9 4.7 4.3 4.2 4.4 4.7 4.9 5.1 5.1 5.3 5.2 5.0 4.3 3.7 2.7 2.1 1.9 3.4 4.4 4.7 7.3 8.2
-1.1 3.1 1.9 -1.6 -0.9 -1.6 -2.1 -2.0 -3.3 -2.7 -2.4 -2.4 -2.0 -1.7 -0.9 0.9 1.7 2.8 3.3 2.9 2.8 3.1 3.4 3.6 3.7 3.5 3.5 3.9 3.7 3.8 3.7 3.5 3.7 4.0 4.1 3.8 3.9 2.2 2.3 3.9 4.7 4.8 4.8
-1.1 0.7 4.6 -1.1 -1.7 -1.5 -2.1 -2.5 -2.2 -2.6 -3.1 -3.3 -2.3 0.1 3.6 -0.4 -1.4 0.5 1.9 2.0 1.6 2.1 2.2 2.2 2.7 3.0 3.2 3.3 3.4 3.4 3.1 3.0 3.3 3.3 3.3 3.5 3.6 1.6 4.1 4.4 4.4 4.2 4.0
-0.4 0.8 2.1 1.7 -0.2 -0.7 -1.4 -0.7 -1.3 -1.8 -1.8 -2.4 -2.2 -0.1 5.0 0.8 -1.9 -0.8 -0.1 0.4 1.8 2.4 2.5 2.3 2.4 2.8 2.9 2.8 2.8 2.5 2.4 2.3 2.6 2.6 2.7 3.0 3.2 3.2 3.6 3.6 3.4 3.2 3.2
0.7 1.4 2.1 2.7 3.3 4.4 4.4 2.6 0.9 0.1 -0.4 -0.3 -0.3 0.3 0.0 -1.3 -2.2 -1.3 -0.5 0.2 0.7 1.0 1.5 1.8 1.6 1.7 2.0 2.1 2.3 2.3 1.8 1.9 2.6 2.9 1.7 2.2 2.5 3.0 3.3 2.8 2.9 2.8 3.0
3.4 2.8 2.7 2.9 3.5 3.0 2.6 1.4 0.6 3.6 2.0 0.9 0.1 0.2 0.0 0.2 0.2 0.6 1.0 1.3 1.2 0.9 0.8 0.8 0.7 0.8 1.1 1.4 1.8 2.1 2.2 2.4 2.7 2.7 2.5 1.9 1.9 2.7 3.3 3.1 3.0 3.1 3.7
3.6 2.6 2.6 2.3 2.4 2.6 2.2 3.1 2.1 1.7 2.2 1.9 1.7 2.2 1.8 2.2 1.8 1.4 1.2 0.9 0.5 0.4 0.2 0.4 0.3 0.2 0.1 0.1 0.6 1.1 1.4 2.6 3.3 2.9 2.4 2.5 2.2 2.1 2.4 2.6 2.8 3.5 3.8
2.8 3.6 3.6 3.8 4.0 4.0 3.8 3.2 2.7 3.2 3.3 3.3 3.0 1.9 3.1 2.9 2.1 1.7 1.4 0.9 0.5 0.3 0.4 0.2 0.1 -0.1 -0.2 -0.1 -0.1 0.1 1.6 2.7 3.4 4.2 4.7 4.3 2.9 1.9 2.0 2.7 3.2 4.1 4.3
Wind_Speed
10 8 8 7 7 6 7 7 7 10 12 10 10 9 7 7 7 6 4 4 4 4 3 4 3 2 2 3 2 2 2 2 2 2 1 3 4 7 14 16 15 16 16
10 8 8 7 7 7 8 8 12 7 13 12 11 8 7 7 9 6 6 5 6 5 4 4 3 2 3 3 2 3 3 3 2 1 1 2 2 3 7 8 11 13 15
7 8 7 8 10 10 9 7 9 9 10 11 11 7 7 6 6 8 6 6 6 5 5 5 4 4 2 1 1 1 1 1 1 1 2 1 2 2 3 4 8 11 14
8 10 12 12 11 10 8 8 8 11 7 8 10 8 8 9 9 8 6 6 6 5 6 6 5 5 5 4 3 2 1 1 1 1 1 2 1 2 2 2 4 3 4
9 11 13 9 8 7 8 8 7 8 8 10 6 7 10 9 8 6 6 6 6 6 5 7 8 8 8 8 3 4 3 2 1 1 1 1 2 2 2 3 3 4 2
11 13 8 7 9 11 9 8 8 9 7 7 8 9 8 6 16 18 13 6 6 6 6 6 9 12 12 12 11 9 8 4 3 2 2 2 2 2 1 2 3 3 4
11 10 9 9 11 11 10 10 12 11 8 11 9 8 9 8 19 21 21 8 7 7 7 6 6 9 14 10 11 12 13 13 10 4 4 4 2 3 1 2 2 1 2
7 5 4 5 8 5 8 11 11 9 11 11 10 10 9 9 22 23 23 10 8 8 8 8 8 7 10 8 5 5 6 8 9 7 5 5 8 9 5 4 2 3 4
4 4 4 5 6 6 10 10 9 7 8 10 8 10 11 10 22 24 19 6 9 10 9 11 10 7 14 17 7 7 6 6 10 12 12 12 13 12 10 2 2 2 3
3 4 4 5 6 7 8 7 6 6 9 7 9 9 15 11 20 25 22 6 9 7 6 8 20 13 18 20 9 8 8 7 5 4 6 9 8 5 6 5 2 2 2
4 3 3 3 5 5 5 4 5 7 7 7 9 8 9 11 11 24 26 10 9 7 7 6 6 21 21 21 22 8 9 6 8 5 4 3 5 6 8 11 11 5 3
3 3 2 1 1 2 4 1 1 4 6 7 8 6 6 8 18 19 24 24 15 9 8 6 6 17 21 23 19 16 18 15 4 4 4 4 3 3 5 10 14 14 15
4 4 3 3 3 2 3 3 2 3 3 4 5 5 5 5 6 19 18 21 23 9 6 10 14 16 18 18 22 19 18 5 4 3 4 4 3 6 11 8 14 18 17
4 5 4 4 4 4 2 2 2 3 3 3 4 4 3 3 4 5 5 6 15 10 14 9 10 10 12 7 6 6 1 2 3 3 3 2 3 2 4 7 6 5 4
2 3 3 3 3 3 3 1 2 0 2 2 2 2 3 4 4 9 8 3 2 3 2 3 3 2 3 2 1 1 1 1 3 3 4 4 5 5 5 4 5 3 4
2 2 2 2 2 2 2 2 3 2 2 3 6 4 2 7 9 11 12 12 12 11 3 2 3 4 4 4 4 5 5 8 5 5 5 4 5 4 3 2 3 4 6
2 2 1 1 1 1 1 2 1 3 5 4 4 3 2 6 9 9 10 10 10 10 3 4 4 5 5 5 6 5 5 5 5 5 5 4 3 3 8 5 5 5 6
3 6 1 1 1 1 2 1 1 1 1 2 6 6 6 6 4 1 1 4 1 5 2 4 5 4 4 4 3 3 3 3 3 4 4 3 3 3 2 3 5 6 6
3 2 1 0 1 2 1 2 1 1 1 1 1 3 6 7 7 5 5 1 2 2 1 1 1 2 2 3 3 3 5 5 5 5 4 3 3 3 5 5 6 15 15
4 6 3 1 1 2 1 1 1 1 0 1 1 2 1 2 1 1 1 1 1 1 2 2 2 2 3 4 4 4 5 5 5 5 5 5 4 3 4 6 6 7 6
2 3 6 2 2 2 2 2 3 2 3 3 3 3 8 4 3 3 3 2 2 3 3 4 4 5 5 5 5 6 6 6 6 5 6 5 5 3 6 7 7 7 7
2 2 2 2 2 2 2 3 3 2 3 3 3 3 12 2 2 2 3 3 3 5 6 5 5 6 7 7 6 7 7 7 6 6 6 6 6 6 7 7 7 7 7
4 4 3 3 3 7 4 2 3 3 4 4 4 3 3 3 3 3 4 4 4 7 11 11 9 8 13 14 15 14 8 8 9 9 6 7 7 7 7 8 8 8 8
5 5 5 4 4 4 4 4 4 9 7 6 5 5 4 4 5 5 5 5 7 11 13 14 14 14 14 16 17 17 19 18 16 15 16 8 8 10 9 9 8 10 10
4 4 4 4 4 4 4 4 4 5 5 4 4 4 4 5 5 6 6 5 7 8 12 15 15 17 19 21 22 22 23 24 23 20 17 16 13 13 11 10 10 11 13
5 6 5 4 5 6 6 5 5 5 6 6 5 4 6 7 7 7 7 7 7 8 13 15 17 20 22 22 23 26 28 28 27 27 24 18 11 11 11 13 16 12 13
Wind_Direction
183 188 186 191 188 183 187 189 186 180 180 176 175 173 172 162 159 147 153 147 130 119 102 114 98 93 74 59 60 61 55 65 90 318 298 323 335 360 359 5 3 358 3
189 188 191 181 181 190 197 191 185 183 185 181 180 179 182 177 174 172 174 162 161 162 162 140 136 115 78 45 41 44 43 30 80 289 312 311 273 353 340 343 343 347 357
174 177 187 193 194 201 201 191 183 179 184 185 182 187 187 185 180 189 184 178 181 182 178 171 171 151 151 157 130 115 94 87 112 154 284 272 283 322 325 333 321 333 345
186 193 201 201 200 197 192 186 183 187 181 189 195 192 190 189 189 189 188 191 192 194 192 190 185 184 185 183 188 181 161 114 56 37 301 296 307 315 347 329 336 313 312
198 207 213 203 192 183 189 189 182 185 196 191 184 196 195 192 197 189 191 194 197 205 207 204 205 203 202 198 172 195 178 174 185 206 258 290 299 331 353 315 297 315 291
208 219 206 183 185 198 195 188 185 198 189 178 197 198 200 204 207 207 198 194 198 202 210 215 214 211 211 209 212 205 196 188 193 192 205 231 243 242 268 308 317 1 343
213 216 206 194 199 202 195 189 200 202 185 202 200 194 208 207 211 213 213 200 202 206 208 208 216 219 215 212 225 225 225 227 224 194 217 218 247 221 257 306 301 248 257
207 202 191 190 207 183 190 205 208 195 197 201 203 202 204 212 214 218 218 194 206 211 211 205 209 211 215 202 208 224 228 233 234 242 221 234 234 243 230 229 249 272 281
196 203 185 180 196 186 203 208 208 199 201 205 203 200 207 219 217 220 220 200 212 221 216 212 208 212 221 221 206 221 228 238 237 246 257 262 256 245 259 198 304 334 307
273 235 199 187 186 199 210 203 198 198 209 202 209 205 214 220 217 220 220 206 218 221 216 212 226 215 225 226 215 211 227 233 201 227 253 261 260 261 279 288 241 250 244
296 257 221 199 206 207 195 186 173 198 202 195 207 208 210 214 220 226 226 217 218 220 221 216 219 232 233 233 235 204 226 213 232 227 224 240 252 262 268 276 269 238 209
6 54 57 142 173 155 171 191 217 189 197 201 210 214 214 215 224 232 233 232 212 214 215 216 208 229 239 242 236 234 231 237 199 211 214 228 231 240 253 264 270 263 250
14 35 50 65 75 120 155 168 169 166 183 210 214 222 220 210 216 233 239 239 237 213 209 204 213 232 243 242 238 240 244 228 192 208 235 233 213 235 251 257 262 264 264
18 21 18 41 44 42 78 131 153 170 172 189 206 222 211 210 213 212 226 234 242 239 203 218 222 222 231 224 236 247 193 185 193 210 226 210 227 200 238 245 258 258 260
40 29 28 57 48 24 18 19 65 159 163 183 211 181 188 223 223 217 207 203 173 211 107 160 181 204 201 181 178 224 289 291 268 258 249 254 260 260 255 221 239 248 240
10 3 1 33 22 47 56 14 348 289 346 356 228 196 238 233 239 234 231 226 221 216 150 151 175 179 191 203 219 234 238 252 247 244 246 242 246 244 246 242 245 245 258
283 258 268 150 94 90 44 83 100 2 58 43 39 39 322 241 234 225 219 223 218 215 193 177 190 194 211 227 232 229 228 227 238 245 246 230 229 227 277 284 278 276 277
317 287 188 202 177 172 159 149 123 110 58 343 14 42 32 29 35 50 238 222 231 219 221 218 216 211 205 205 207 211 231 236 244 254 249 215 222 223 222 255 263 273 276
326 344 24 219 196 172 85 85 116 126 146 195 349 3 10 0 348 319 275 328 170 192 169 198 203 214 213 225 233 238 238 245 247 241 240 228 214 202 252 261 261 277 277
315 285 203 87 33 81 80 110 84 98 116 307 281 253 316 359 304 280 306 303 278 256 261 243 229 213 214 232 230 232 244 248 248 249 251 247 244 204 228 248 255 262 256
305 309 299 143 170 183 182 188 203 181 198 215 229 231 238 200 228 218 230 228 217 235 230 228 242 243 240 240 241 244 243 245 244 245 249 250 247 235 248 252 253 250 253
282 283 282 242 229 205 223 218 208 208 227 229 262 266 266 267 203 212 222 228 236 244 240 235 244 245 242 241 237 240 240 242 240 239 240 240 240 240 242 245 248 250 251
227 240 239 237 237 248 254 219 223 222 231 232 235 239 231 242 245 240 238 238 240 248 247 247 248 247 245 244 240 237 239 239 240 235 224 233 237 239 242 248 249 252 253
214 224 233 233 229 230 241 243 238 247 240 232 231 234 230 229 228 233 236 240 241 242 242 243 242 242 243 242 244 245 246 247 246 240 232 235 241 253 253 251 247 247 252
209 217 225 235 239 251 257 253 228 231 238 232 233 234 232 239 243 243 241 239 241 244 246 245 245 246 245 243 245 246 248 254 251 242 236 238 243 243 243 245 245 248 250
210 216 221 223 233 242 246 247 239 237 239 242 237 235 248 255 256 257 256 255 253 253 254 254 253 250 252 253 250 251 258 258 257 255 250 240 235 238 238 240 244 244 248